232  
ASUS41 KGYX 200110  
RWRGYX  
WEATHER ROUNDUP FOR MAINE AND NEW HAMPSHIRE  
NATIONAL WEATHER SERVICE GRAY ME  
900 PM EDT MON APR 19 2021  
 
MEZ002-005-006-010-012-015-018-020-021-024-026-027-029-200200-  
MAINE  
 
CITY SKY/WX TMP DP RH WIND PRES REMARKS
 
PORTLAND CLEAR 49 39 68 S3 29.83R  
SANFORD CLEAR 50 39 66 S3 29.82R  
BAR HARBOR PTCLDY 46 38 73 SW7 29.81R  
WISCASSET MOCLDY 48 39 71 CALM 29.84R  
ROCKLAND PTCLDY 44 38 79 SW3 29.82R  
FRYEBURG CLEAR 43 39 86 CALM 29.81R  
LEWISTONAUBURN MOCLDY 47 45 93 CALM 29.82R  
AUGUSTA CLOUDY 51 43 74 CALM 29.81S  
WATERVILLE MOCLDY 51 40 65 CALM 29.79R  
BANGOR CLOUDY 53 39 59 SW5 29.79R  
GREENVILLE N/A 48 34 58 CALM 29.76R  
MILLINOCKET MOCLDY 53 36 52 W5 29.78R  
HOULTON CLOUDY 45 37 73 CALM 29.73R  
PRESQUE ISLE CLOUDY 53 33 46 W5 29.75R  
FRENCHVILLE CLOUDY 51 27 39 NW5 29.73R  
CARIBOU CLOUDY 52 32 46 W3 29.73R  

 
 
NHZ002-005-008-009-011-012-014-200200-  
NEW HAMPSHIRE  
 
CITY SKY/WX TMP DP RH WIND PRES REMARKS
 
PORTSMOUTH MOCLDY 51 36 57 S7 29.82R  
ROCHESTER CLEAR 49 40 71 CALM 29.81R  
NASHUA MOCLDY 53 41 63 CALM 29.82R  
MANCHESTER MOCLDY 58 36 43 CALM 29.79R  
CONCORD CLEAR 47 37 68 NE3 29.81R  
LACONIA CLEAR 46 44 93 CALM 29.81R  
PLYMOUTH FAIR 44 39 82 CALM 29.80R  
BERLIN PTCLDY 37 34 89 CALM 29.80R  
WHITEFIELD PTCLDY 38 37 97 CALM 29.80R FOG  
JAFFREY PTCLDY 46 44 93 CALM 29.83R  
KEENE PTCLDY 50 42 74 CALM 29.84R  
LEBANON PTCLDY 47 37 68 S6 29.80R  
MT WASHINGTON PTCLDY 27 23 86 W26 N/A WCI 11  

 
 
VTZ005-007-008-200200-  
VERMONT  
 
CITY SKY/WX TMP DP RH WIND PRES REMARKS
 
ST JOHNSBURY N/A 47 41 80 MISG 29.78R  
MONTPELIER CLEAR 44 35 70 SW3 29.82R  
BURLINGTON PTCLDY 54 35 48 S6 29.77R  

 
 
MAZ007-012-024-CTZ003-RIZ002-NYZ038-NYZ072-200200-  
SOUTHERN NEW ENGLAND AND NY  
 
CITY SKY/WX TMP DP RH WIND PRES REMARKS
 
BOSTON PTCLDY 57 43 59 W3 29.82R  
WORCESTER CLEAR 53 38 56 W10 29.83R  
NANTUCKET CLEAR 47 43 86 SW3 29.85S  
PROVIDENCE CLOUDY 56 37 49 S5 29.83S  
HARTFORD LGT RAIN 53 41 63 NW3 29.85R  
ALBANY PTCLDY 49 41 74 SE5 29.84R  
NEW YORK CITY MOCLDY 58 43 57 CALM 29.84R  

 
 
ANZ081-ANZ082-ANZ150-NHZ014-MEZ023>029-200200-  
COASTAL MARINE OBSERVATIONS  
 
STATION/POSITION TIME TEMP WIND PRES WAVE
 
AIR SEA DIR/SP/G HT/PER  
(UTC) (F) (DEG/KT/KT) (MB) (FT/S)  
MOUNT DESERT ROC 0100 230/ 16/ 16 1009.3R  
ISLE OF SHOALS 0100 48 200/ 9/ 10 1009.2R  
JEFFREYS LEDGE 0056 45 N/A 1/ 9  
CASHES LEDGE BUO 0050 47 45 1010.4R 1/ 8  

 
   
............KEY...........
 
 
WCI - WIND CHILL  
TC - TEMPERATURE IN CELSIUS  
VSB - VISIBILITY
IN MILES  
HX - HEAT INDEX  
FAIR- INDICATES FEW OR NO CLOUDS BELOW 12,000 FT, WITH NO  
SIGNIFICANT WEATHER AND/OR S TO VISIBILITY.  
 
 
 
CLICK HERE TO GO TO PREVIOUS BULLETINS.

The Nexlab ME Page
The Nexlab NH Page Main Text Page